User: anonymous   Login
Location: NJAA Observatory
(40.6819°N, 74.8979°W)
Time: 02:47:15
(UTC-04:00)
Language:

Cosmos 1633 - Orbit

View from above orbital plane
View from above orbital plane
View from above satellite
View from above satellite

Ground track
Ground track

The orbit data is extracted from the following two-line orbital elements,

1 15592U 85020A   17147.63140020 +.00001375 +00000-0 +48336-4 0  9997
2 15592 082.5370 339.9088 0012095 247.7957 112.1999 15.28428317760878
Epoch (UTC): 27 May 2017 15:09:12
Eccentricity: 0.0012095
inclination: 82.5370°
perigee height: 472 km
apogee height: 489 km
right ascension of ascending node: 339.9088°
argument of perigee: 247.7957°
revolutions per day: 15.28428317
mean anomaly at epoch: 112.1999°
orbit number at epoch: 76087

The dashed part of the orbit path shows where the satellite is in the earth's shadow,  

DLR